DW9936 Weather Reports


Display with metric or nautical units.
time (UTC)temp
F
wind
direction
speed
MPH
gust
MPH
rain 1hr
in
rain 24hr
in
rain mn
in
humidity
%
barometer
mb
20260505031547 53 306 0.0 0.0 0.00 0.00 0.00 73 1008.6
20260505030043 53 306 0.0 0.0 0.00 0.00 0.00 73 1008.6
20260505024538 54 306 0.0 0.0 0.00 0.00 0.00 71 1008.6
20260505023043 54 306 0.0 0.0 0.00 0.00 0.00 70 1008.6
20260505021536 54 297 0.0 0.0 0.00 0.00 0.00 69 1008.8
20260505020035 55 297 0.0 0.0 0.00 0.00 0.00 68 1009.0
20260505014534 55 297 0.0 0.0 0.00 0.00 0.00 68 1009.0
20260505013030 55 298 0.0 0.0 0.00 0.00 0.00 69 1009.1
20260505011531 55 298 0.0 0.0 0.00 0.00 0.00 68 1009.2
20260505010027 55 315 0.0 0.0 0.00 0.00 0.00 67 1009.2
20260505004533 56 315 0.0 0.0 0.00 0.00 0.00 67 1009.4
20260505003022 57 315 0.0 3.0 0.00 0.00 0.00 65 1009.2
20260505001520 56 311 0.0 0.0 0.00 0.00 0.00 65 1009.5
20260505000027 57 311 0.0 0.0 0.00 0.00 0.00 63 1009.6
20260504234514 58 311 0.0 0.0 0.00 0.00 0.00 62 1009.6
20260504233012 58 311 0.0 1.0 0.00 0.00 0.00 61 1009.7
20260504231511 58 315 0.0 0.0 0.00 0.00 0.00 61 1009.7
20260504230015 58 315 0.0 0.0 0.00 0.00 0.00 61 1009.8
20260504224507 58 315 0.0 0.0 0.00 0.00 0.00 61 1009.7
20260504223006 59 315 0.0 2.0 0.00 0.00 0.00 60 1009.8
20260504221505 60 338 0.0 1.0 0.00 0.00 0.00 58 1009.8
20260504220002 60 294 0.0 0.0 0.00 0.00 0.00 58 1009.8
20260504214604 60 294 0.0 0.0 0.00 0.00 0.00 57 1009.8
20260504213141 61 294 0.0 1.0 0.00 0.00 0.00 56 1009.8
20260504211607 61 146 0.0 0.0 0.00 0.00 0.00 56 1009.9
20260504210100 62 146 0.0 0.0 0.00 0.00 0.00 53 1009.8
20260504204558 64 146 0.0 0.0 0.00 0.00 0.00 49 1009.8
20260504203121 65 146 0.0 0.0 0.00 0.00 0.00 48 1009.7
20260504201558 66 146 0.0 0.0 0.00 0.00 0.00 46 1009.8
20260504200058 66 146 0.0 0.0 0.00 0.00 0.00 44 1009.8
20260504194606 67 146 0.0 0.0 0.00 0.00 0.00 43 1009.8
20260504193109 68 146 0.0 0.0 0.00 0.00 0.00 42 1009.7
20260504191556 69 121 0.0 1.0 0.00 0.00 0.00 40 1009.7
20260504190114 70 111 0.0 1.0 0.00 0.00 0.00 38 1009.6
20260504184605 71 153 0.0 1.0 0.00 0.00 0.00 38 1009.5
20260504183054 72 115 0.0 2.0 0.00 0.00 0.00 37 1009.6
20260504181554 73 80 0.0 2.0 0.00 0.00 0.00 36 1009.5
20260504180054 73 68 0.0 2.0 0.00 0.00 0.00 35 1009.5
20260504174601 75 74 0.0 2.0 0.00 0.00 0.00 35 1009.6
20260504173056 76 67 0.0 2.0 0.00 0.00 0.00 33 1009.6
20260504171552 77 96 0.0 3.0 0.00 0.00 0.00 32 1009.7
20260504100105 77 231 0.0 3.0 0.00 0.00 0.00 45 1013.9
20260504081537 68 12 0.0 1.0 0.00 0.00 0.00 52 1014.4
20260504050104 51 168 0.0 0.0 0.00 0.00 0.00 78 1013.9
20260504044604 50 168 0.0 0.0 0.00 0.00 0.00 79 1013.9
20260504043057 49 168 0.0 0.0 0.00 0.00 0.00 80 1013.7
20260504041554 49 168 0.0 0.0 0.00 0.00 0.00 81 1013.7
20260504040053 48 167 0.0 0.0 0.00 0.00 0.00 81 1013.6
20260504034554 48 167 0.0 0.0 0.00 0.00 0.00 81 1013.6
20260504033055 48 167 0.0 0.0 0.00 0.00 0.00 80 1013.7